User: anonymous   Login
Location: Allison Elementary School
(34.0784°N, 117.7317°W)
Time: 22:50:56
(UTC+00:00)
Language:

COSMO-SKYMED 1 - Orbit

View from above orbital plane
View from above orbital plane
View from above satellite
View from above satellite

Ground track
Ground track

The orbit data is extracted from the following two-line orbital elements,

1 31598U 07023A   20028.85341676 -.00000349  00000-0 -37239-4 0  9996
2 31598  97.8838 214.0456 0001374  86.1141 274.0239 14.82155915684005
Epoch (UTC): 28 January 2020 20:28:55
Eccentricity: 0.0001374
inclination: 97.8838°
perigee height: 621 km
apogee height: 623 km
right ascension of ascending node: 214.0456°
argument of perigee: 86.1141°
revolutions per day: 14.82155915
mean anomaly at epoch: 274.0239°
orbit number at epoch: 68400

The dashed part of the orbit path shows where the satellite is in the earth's shadow,  

DLR